Regional Weather Roundup
Issued by NWS Austin/San Antonio, TX

Home | Current Version | Previous Version | Text Only | Print | Product List | Glossary On
Versions: 1 2 3 4 5 6 7 8 9 10 11 12 13 14 15 16 17 18 19 20 21 22 23 24 25 26 27 28 29 30 31 32 33 34 35 36 37 38 39 40 41 42 43 44 45 46 47 48 49 50
047
ASUS44 KEWX 231302
RWREWX
SOUTH TEXAS REGIONAL WEATHER ROUNDUP
NATIONAL WEATHER SERVICE AUSTIN/SAN ANTONIO TX
800 AM CDT SUN JUL 23 2017

NOTE: "FAIR" INDICATED FEW OR NO CLOUDS BELOW 12,000 FEET WITH NO
SIGNIFICANT WEATHER AND/OR OBSTRUCTIONS TO VISIBILITY.

* - THESE STATIONS ARE NOT NWS OR FAA STATIONS...AND ARE NOT SUBJECT
    TO NWS AND FAA QUALITY CONTROL.

TXZ171-172-183>190-231400-
TEXAS HILL COUNTRY AND EDWARDS PLATEAU

CITY           SKY/WX    TMP DP  RH WIND       PRES   REMARKS
JUNCTION       SUNNY     79  71  76 CALM      29.98R
*LLANO         MOSUNNY   79  72  78 CALM      29.97R
BURNET         PTSUNNY   78  72  81 S8        29.97R
*HORSESHOE BAY SUNNY     78  72  80 S3        29.95R
*KERRVILLE     CLOUDY    74  72  93 SE6       29.98R
*FREDERICKSBRG SUNNY     75  69  80 S5        29.98R
*ROCKSPRINGS     N/A     75  73  94 S7        30.02R
*BOERNE STAGE  MOSUNNY   73  72  94 S7        29.99R
*CASTROVILLE   MOSUNNY   78  73  86 E3        29.97R
HONDO          SUNNY     77  73  87 E6        29.95R
*UVALDE        SUNNY     75  72  89 CALM      29.96R
DEL RIO        SUNNY     80  70  71 E8        29.92R
LAUGHLIN AFB   MOSUNNY   79  71  77 E9        29.93R
CARRIZO SPRGS  SUNNY     77  68  73 CALM      29.91R
*EAGLE PASS    NOT AVBL
$$

TXZ173-191>194-202-209-217>225-228-231400-
CENTRAL AND SOUTH CENTRAL TEXAS

CITY           SKY/WX    TMP DP  RH WIND       PRES   REMARKS
GEORGETOWN     MOSUNNY   79  73  83 S14       29.95R
AUSTIN/BERGSTM MOSUNNY   78  75  90 S7        29.93S
AUSTIN/MABRY   MOSUNNY   79  74  84 VRB5      29.95R
*AUSTIN/EXEC     N/A     77  77 100 S6        29.95R
*LAGO VISTA    SUNNY     78  74  87 S7        29.97R
SAN MARCOS     SUNNY     75  66  73 S6        29.96R
NEW BRAUNFELS  MOSUNNY   77  74  90 CALM      29.94R
RANDOLPH AFB   MOSUNNY   77  77 100 S7        29.95R
PT SAN ANTONIO MOSUNNY   78  73  84 SE6       29.93R
SAN ANTONIO    MOSUNNY   79  72  79 S8        29.95R
STINSON FIELD  MOSUNNY   79  73  82 SE5       29.93R
*LA GRANGE     SUNNY     80  78  95 S5        29.92S
*GIDDINGS      MOSUNNY   76  74  93 SW5       29.95R
*GONZALES      SUNNY     78  78 100 S5        29.94R
$$

TXZ163>164-176>182-195>201-210>213-226-227-235-231400-
SOUTHEAST TEXAS

CITY           SKY/WX    TMP DP  RH WIND       PRES   REMARKS
COLLEGE STN    SUNNY     78  77  96 S3        29.94R
*BRYAN         MOSUNNY   78  78 100 S5        29.95S
*CALDWELL      NOT AVBL
*CROCKETT      MOSUNNY   75  75 100 CALM      29.97S
*BRENHAM       PTSUNNY   78  77  98 CALM      29.95R FOG
HUNTSVILLE     CLOUDY    79  75  87 SW8       29.95R
CONROE         CLOUDY    79  76  90 S5        29.95R
HOUSTON BUSH   MOSUNNY   81  76  84 S3        29.94R
HOUSTON HOBBY  PTSUNNY   82  76  81 SW3       29.94R
*HOUSTON SW AP SUNNY     77  76  96 CALM      29.95R
PEARLAND       SUNNY     83  76  79 CALM      29.95R HX  91
HOUSTON HOOKS  SUNNY     80  77  90 SW5       29.94R
ELLINGTON FLD  MOSUNNY   84  75  74 S5        29.96R HX  92
SUGAR LAND     SUNNY     82  78  88 CALM      29.94R HX  91
*HOUSTON EXEC  SUNNY     79  77  94 S6        29.95S
*CLEVELAND MUN SUNNY     77  75  95 CALM      29.95S FOG
*WHARTON       CLOUDY    79  75  87 CALM      29.95R
*COLUMBUS      FAIR      78  76  93 S3        29.95R
*EAGLE LAKE    MOSUNNY   80  80  99 CALM      29.94R
$$

TXZ214>216-236>238-231400-
THE UPPER TEXAS COAST

CITY           SKY/WX    TMP DP  RH WIND       PRES   REMARKS
*ORANGE        MOSUNNY   78  78 100 CALM      29.96R
PORT ARTHUR    MOSUNNY   77  76  96 CALM      29.94R
GALVESTON      MOSUNNY   85  78  80 SW13      29.95R HX  96
ANGLETON       SUNNY     84  78  82 SW6       29.94R HX  95
*BAY CITY      CLOUDY    83  78  86 S8        29.94R HX  92
PALACIOS       CLOUDY    83  75  77 S16       29.93R HX  90
$$

TXZ229>234-239>247-231400-
TEXAS COASTAL BEND AND RIO GRANDE PLAINS

CITY           SKY/WX    TMP DP  RH WIND       PRES   REMARKS
VICTORIA       CLOUDY    79  76  90 CALM      29.93R
*BEEVILLE      CLOUDY    81  81 100 S9        29.93R HX  93
ROCKPORT       CLOUDY    84  75  74 S10G18    29.92R HX  92
*PORT ARANSAS  CLOUDY    83  75  76 S17G23    29.91S HX  91
*PORT LAVACA   CLOUDY    82  76  80 S7        29.93R
*INGLESIDE     CLOUDY    85  77  76 MISG      29.92R HX  95
CORPUS CHRISTI CLOUDY    81  77  88 S10       29.91R
CORPUS NAS     CLOUDY    85  79  82 S13G22    29.91R HX  98
*ROBSTOWN      CLOUDY    82  76  81 S13       29.92R HX  90
ALICE          CLOUDY    79  75  87 S12       29.91R
KINGSVILLE NAS CLOUDY    81  79  94 S15       29.92R HX  90
COTULLA        SUNNY     79  71  76 SE8       29.92R
*FAITH RANCH   SUNNY     79  72  78 S8        29.91R
LAREDO         SUNNY     81  71  71 SE13        N/A
$$

TXZ248>255-231400-
DEEP SOUTH TEXAS

CITY           SKY/WX    TMP DP  RH WIND       PRES   REMARKS
BROWNSVILLE    MOSUNNY   80  76  87 S13       29.92R
PORT ISABEL    MOSUNNY   82  76  81 S13       29.91R
*SOUTH PADRE   NOT AVBL
HARLINGEN      MOSUNNY   82  77  84 S13       29.91R HX  90
*HEBBRONVILLE  MOSUNNY   75  73  91 S7        29.94R
MCALLEN        CLOUDY    80  76  87 SE14      29.91R
*WESLACO       PTSUNNY   81  75  82 S8        29.90R
FALFURRIAS     CLOUDY    78  75  92 SE5       29.91S
EDINBURG       CLOUDY    81  76  84 SE6       29.91R
*ZAPATA        MOSUNNY   80  70  72 SE6       29.91R
$$

TXZ213>215-236>238-242>244-246-247-251-254-255-231400-
CMAN STATIONS

STATION/POSITION TIME  TEMP    WIND        PRES    WAVE
                       AIR SEA DIR/SP/G            HT/PER
                 (UTC) (F)     (DEG/KT/KT) (MB)    (FT/S)
SABINE PASS      1230   83 88  230/  4/  7 1015.1
SEA RIM ST PARK  1200   84     230/  9/ 11 1014.1
NORTH JETTY/GLS  1224      86  210/ 17/ 20 1013.2
EAGLE POINT      1224   83 87  240/  6/ 10 1013.8
MORGANS POINT    1230   83 87  210/  4/  8 1013.6
MISSION/ARANSAS  1200          190/ 10     1013.0
PORT O`CONNOR    1224   84     190/ 16/ 18 1012.4
PORT ARANSAS     1200   84 85  170/ 22/ 25 1012.4
MALAQUITE BEACH  1224   84 85  160/ 22/ 24 1012.1
BAFFIN BAY       1224   83 83              1013.1
PORT ISABEL      1224   82 85              1012.9
$$




USA.gov is the U.S. government's official web portal to all federal, state and local government web resources and services.